| time (UTC) | temp F | wind direction | speed knots | gust knots | rain 1hr in | rain 24hr in | rain mn in | humidity % | barometer mb |
| 20260503223303 | 89 | 290 | 4.3 | 11.3 | 0.00 | 0.00 | 0.00 | 32 | 1009.3 |
| 20260503222803 | 89 | 261 | 3.5 | 11.3 | 0.00 | 0.00 | 0.00 | 31 | 1009.5 |
| 20260503222620 | 88 | 280 | 1.7 | 8.7 | 0.00 | 0.00 | 0.00 | 33 | 1009.4 |
| 20260503222113 | 89 | 278 | 2.6 | 11.3 | 0.00 | 0.00 | 0.00 | 35 | 1009.7 |
| 20260503221302 | 89 | 259 | 5.2 | 11.3 | 0.00 | 0.00 | 0.00 | 32 | 1009.7 |
| 20260503220800 | 90 | 232 | 1.7 | 7.8 | 0.00 | 0.00 | 0.00 | 32 | 1009.8 |
| 20260503220300 | 90 | 229 | 2.6 | 6.1 | 0.00 | 0.00 | 0.00 | 31 | 1009.9 |
| 20260503220150 | 90 | 246 | 2.6 | 6.1 | 0.00 | 0.00 | 0.00 | 29 | 1009.8 |
| 20260503215301 | 89 | 180 | 3.5 | 7.0 | 0.00 | 0.00 | 0.00 | 30 | 1009.8 |
| 20260503215113 | 90 | 264 | 0.0 | 11.3 | 0.00 | 0.00 | 0.00 | 30 | 1009.8 |
| 20260503214618 | 89 | 292 | 1.7 | 11.3 | 0.00 | 0.00 | 0.00 | 27 | 1010.1 |
| 20260503213801 | 89 | 69 | 3.5 | 11.3 | 0.00 | 0.00 | 0.00 | 25 | 1010.1 |
| 20260503213303 | 90 | 115 | 6.1 | 11.3 | 0.00 | 0.00 | 0.00 | 29 | 1010.2 |
| 20260503212802 | 89 | 218 | 1.7 | 11.3 | 0.00 | 0.00 | 0.00 | 24 | 1010.1 |
| 20260503212301 | 89 | 193 | 5.2 | 13.0 | 0.00 | 0.00 | 0.00 | 26 | 1010.0 |
| 20260503211801 | 89 | 195 | 3.5 | 13.0 | 0.00 | 0.00 | 0.00 | 25 | 1010.1 |
| 20260503211626 | 89 | 223 | 7.8 | 12.2 | 0.00 | 0.00 | 0.00 | 28 | 1010.2 |
| 20260503211112 | 90 | 222 | 8.7 | 12.2 | 0.00 | 0.00 | 0.00 | 26 | 1010.4 |
| 20260503210301 | 89 | 144 | 3.5 | 5.2 | 0.00 | 0.00 | 0.00 | 28 | 1010.3 |
| 20260503205801 | 89 | 208 | 3.5 | 11.3 | 0.00 | 0.00 | 0.00 | 26 | 1010.2 |
| 20260503205304 | 89 | 223 | 0.9 | 12.2 | 0.00 | 0.00 | 0.00 | 24 | 1010.3 |
| 20260503204800 | 89 | 202 | 0.9 | 13.9 | 0.00 | 0.00 | 0.00 | 27 | 1010.4 |
| 20260503204616 | 89 | 153 | 5.2 | 13.9 | 0.00 | 0.00 | 0.00 | 28 | 1010.4 |
| 20260503203802 | 89 | 179 | 5.2 | 8.7 | 0.00 | 0.00 | 0.00 | 27 | 1010.5 |
| 20260503203301 | 89 | 216 | 1.7 | 8.7 | 0.00 | 0.00 | 0.00 | 25 | 1010.9 |
| 20260503202800 | 90 | 214 | 6.1 | 7.0 | 0.00 | 0.00 | 0.00 | 28 | 1010.8 |
| 20260503202608 | 90 | 80 | 1.7 | 11.3 | 0.00 | 0.00 | 0.00 | 30 | 1010.7 |
| 20260503201802 | 89 | 50 | 0.9 | 11.3 | 0.00 | 0.00 | 0.00 | 25 | 1010.9 |
| 20260503201624 | 90 | 154 | 5.2 | 7.0 | 0.00 | 0.00 | 0.00 | 25 | 1010.9 |
| 20260503200801 | 89 | 112 | 0.9 | 9.6 | 0.00 | 0.00 | 0.00 | 25 | 1010.9 |
| 20260503200332 | 89 | 105 | 1.7 | 9.6 | 0.00 | 0.00 | 0.00 | 24 | 1010.9 |
| 20260503195801 | 89 | 168 | 5.2 | 7.0 | 0.00 | 0.00 | 0.00 | 27 | 1011.0 |
| 20260503195304 | 89 | 172 | 2.6 | 7.8 | 0.00 | 0.00 | 0.00 | 27 | 1011.1 |
| 20260503195112 | 89 | 126 | 5.2 | 7.8 | 0.00 | 0.00 | 0.00 | 30 | 1011.1 |
| 20260503194621 | 89 | 53 | 5.2 | 9.6 | 0.00 | 0.00 | 0.00 | 28 | 1011.3 |
| 20260503193803 | 88 | 154 | 1.7 | 9.6 | 0.00 | 0.00 | 0.00 | 25 | 1011.3 |
| 20260503193310 | 88 | 119 | 3.5 | 9.6 | 0.00 | 0.00 | 0.00 | 26 | 1011.4 |
| 20260503192802 | 88 | 124 | 5.2 | 9.6 | 0.00 | 0.00 | 0.00 | 31 | 1011.2 |
| 20260503192306 | 88 | 143 | 6.1 | 12.2 | 0.00 | 0.00 | 0.00 | 26 | 1011.5 |
| 20260503191801 | 88 | 96 | 2.6 | 13.9 | 0.00 | 0.00 | 0.00 | 25 | 1011.5 |
| 20260503191301 | 88 | 129 | 7.8 | 13.0 | 0.00 | 0.00 | 0.00 | 27 | 1011.5 |
| 20260503190802 | 88 | 96 | 7.8 | 14.8 | 0.00 | 0.00 | 0.00 | 31 | 1011.5 |
| 20260503190615 | 88 | 94 | 9.6 | 14.8 | 0.00 | 0.00 | 0.00 | 29 | 1011.7 |
| 20260503185801 | 88 | 82 | 7.8 | 12.2 | 0.00 | 0.00 | 0.00 | 36 | 1011.6 |
| 20260503185301 | 87 | 112 | 3.5 | 12.2 | 0.00 | 0.00 | 0.00 | 30 | 1011.6 |
| 20260503184801 | 86 | 132 | 6.1 | 11.3 | 0.00 | 0.00 | 0.00 | 29 | 1011.8 |
| 20260503184613 | 86 | 223 | 1.7 | 11.3 | 0.00 | 0.00 | 0.00 | 34 | 1011.6 |
| 20260503183803 | 85 | 75 | 4.3 | 7.8 | 0.00 | 0.00 | 0.00 | 31 | 1011.6 |
| 20260503183615 | 85 | 20 | 0.9 | 6.1 | 0.00 | 0.00 | 0.00 | 39 | 1011.9 |
| 20260503183116 | 84 | 278 | 0.9 | 5.2 | 0.00 | 0.00 | 0.00 | 42 | 1012.0 |
| 20260503182304 | 83 | 276 | 1.7 | 5.2 | 0.00 | 0.00 | 0.00 | 39 | 1012.0 |
| 20260503181803 | 83 | 304 | 0.0 | 5.2 | 0.00 | 0.00 | 0.00 | 39 | 1012.1 |
| 20260503181301 | 82 | 309 | 2.6 | 5.2 | 0.00 | 0.00 | 0.00 | 43 | 1012.0 |
| 20260503181116 | 81 | 298 | 2.6 | 6.1 | 0.00 | 0.00 | 0.00 | 46 | 1012.2 |
| 20260503180301 | 80 | 298 | 1.7 | 6.1 | 0.00 | 0.00 | 0.00 | 43 | 1012.1 |
| 20260503175800 | 80 | 323 | 2.6 | 6.1 | 0.00 | 0.00 | 0.00 | 44 | 1012.3 |
| 20260503175301 | 80 | 334 | 2.6 | 6.1 | 0.00 | 0.00 | 0.00 | 44 | 1012.3 |
| 20260503174801 | 79 | 302 | 3.5 | 6.1 | 0.00 | 0.00 | 0.00 | 44 | 1012.3 |
| 20260503174303 | 79 | 311 | 2.6 | 7.0 | 0.00 | 0.00 | 0.00 | 44 | 1012.3 |
| 20260503173801 | 78 | 335 | 1.7 | 7.0 | 0.00 | 0.00 | 0.00 | 44 | 1012.5 |
| 20260503173300 | 78 | 312 | 0.9 | 6.1 | 0.00 | 0.00 | 0.00 | 45 | 1012.2 |
| 20260503172800 | 77 | 292 | 3.5 | 6.1 | 0.00 | 0.00 | 0.00 | 46 | 1012.4 |
| 20260503172616 | 77 | 331 | 3.5 | 5.2 | 0.00 | 0.00 | 0.00 | 45 | 1012.5 |
| 20260503171801 | 77 | 321 | 1.7 | 3.5 | 0.00 | 0.00 | 0.00 | 47 | 1012.5 |
| 20260503171302 | 76 | 311 | 1.7 | 3.5 | 0.00 | 0.00 | 0.00 | 49 | 1012.5 |
| 20260503170801 | 76 | 226 | 0.9 | 2.6 | 0.00 | 0.00 | 0.00 | 46 | 1012.6 |
| 20260503170301 | 75 | 225 | 1.7 | 2.6 | 0.00 | 0.00 | 0.00 | 49 | 1012.7 |
| 20260503160213 | 62 | 191 | 0.9 | 2.6 | 0.00 | 0.00 | 0.00 | 79 | 1012.8 |
| 20260503150801 | 53 | 154 | 0.0 | 1.7 | 0.00 | 0.00 | 0.00 | 98 | 1013.1 |
| 20260503150301 | 52 | 154 | 0.0 | 1.7 | 0.00 | 0.00 | 0.00 | 98 | 1013.1 |
| 20260503140303 | 47 | 154 | 0.9 | 1.7 | 0.00 | 0.00 | 0.00 | 99 | 1013.0 |
| 20260503130801 | 45 | 155 | 0.0 | 0.0 | 0.00 | 0.00 | 0.00 | 98 | 1012.7 |
| 20260503130629 | 45 | 155 | 0.0 | 0.0 | 0.00 | 0.00 | 0.00 | 98 | 1012.8 |
| 20260503110802 | 48 | 155 | 0.0 | 0.0 | 0.00 | 0.00 | 0.00 | 98 | 1013.2 |
| 20260503110314 | 48 | 154 | 0.0 | 0.0 | 0.00 | 0.00 | 0.00 | 98 | 1013.4 |
| 20260503090300 | 51 | 154 | 0.0 | 0.0 | 0.00 | 0.00 | 0.00 | 96 | 1013.2 |
| 20260503081302 | 53 | 154 | 0.0 | 0.0 | 0.00 | 0.00 | 0.00 | 96 | 1013.3 |
| 20260503080801 | 53 | 154 | 0.0 | 0.0 | 0.00 | 0.00 | 0.00 | 95 | 1013.6 |
| 20260503080615 | 53 | 154 | 0.0 | 0.0 | 0.00 | 0.00 | 0.00 | 95 | 1013.5 |
| 20260503080125 | 54 | 154 | 0.0 | 0.0 | 0.00 | 0.00 | 0.00 | 94 | 1013.4 |
| 20260503072801 | 55 | 154 | 0.0 | 0.9 | 0.00 | 0.00 | 0.00 | 94 | 1013.6 |
| 20260503072305 | 56 | 154 | 0.0 | 1.7 | 0.00 | 0.00 | 0.00 | 94 | 1013.7 |
| 20260503071801 | 56 | 154 | 0.9 | 1.7 | 0.00 | 0.00 | 0.00 | 94 | 1013.7 |
| 20260503071305 | 56 | 154 | 0.0 | 0.0 | 0.00 | 0.00 | 0.00 | 94 | 1013.4 |
| 20260503070904 | 56 | 153 | 0.0 | 1.7 | 0.00 | 0.00 | 0.00 | 94 | 1013.5 |
| 20260503054805 | 59 | 120 | 0.9 | 0.9 | 0.00 | 0.00 | 0.00 | 86 | 1013.9 |
| 20260503054301 | 59 | 119 | 0.0 | 0.9 | 0.00 | 0.00 | 0.00 | 87 | 1013.9 |
| 20260503053801 | 59 | 119 | 0.0 | 0.0 | 0.00 | 0.00 | 0.00 | 86 | 1013.8 |
| 20260503053303 | 60 | 119 | 0.0 | 0.0 | 0.00 | 0.00 | 0.00 | 85 | 1013.8 |
| 20260503052804 | 60 | 119 | 0.0 | 0.0 | 0.00 | 0.00 | 0.00 | 85 | 1013.7 |
| 20260503052301 | 60 | 119 | 0.0 | 0.9 | 0.00 | 0.00 | 0.00 | 84 | 1013.9 |
| 20260503051802 | 60 | 119 | 0.0 | 0.9 | 0.00 | 0.00 | 0.00 | 84 | 1014.0 |
| 20260503051617 | 60 | 119 | 0.0 | 0.0 | 0.00 | 0.00 | 0.00 | 83 | 1014.0 |
| 20260503051131 | 61 | 119 | 0.0 | 0.0 | 0.00 | 0.00 | 0.00 | 82 | 1014.1 |
| 20260503050302 | 61 | 119 | 0.0 | 0.9 | 0.00 | 0.00 | 0.00 | 82 | 1014.0 |
| 20260503045801 | 61 | 119 | 0.0 | 0.9 | 0.00 | 0.00 | 0.00 | 82 | 1013.8 |
| 20260503045304 | 62 | 119 | 0.0 | 0.0 | 0.00 | 0.00 | 0.00 | 81 | 1014.0 |
| 20260503045155 | 62 | 119 | 0.0 | 0.0 | 0.00 | 0.00 | 0.00 | 80 | 1014.0 |
| 20260503044301 | 62 | 119 | 0.0 | 0.0 | 0.00 | 0.00 | 0.00 | 79 | 1013.9 |
| 20260503043802 | 62 | 119 | 0.0 | 0.0 | 0.00 | 0.00 | 0.00 | 79 | 1014.1 |
| 20260503043301 | 63 | 119 | 0.0 | 0.0 | 0.00 | 0.00 | 0.00 | 79 | 1013.9 |
| 20260503042805 | 63 | 119 | 0.0 | 0.0 | 0.00 | 0.00 | 0.00 | 78 | 1014.0 |
| 20260503042304 | 64 | 119 | 0.0 | 0.9 | 0.00 | 0.00 | 0.00 | 76 | 1013.9 |
| 20260503041803 | 64 | 119 | 0.0 | 3.5 | 0.00 | 0.00 | 0.00 | 75 | 1013.7 |
| 20260503041301 | 65 | 119 | 0.0 | 3.5 | 0.00 | 0.00 | 0.00 | 73 | 1013.6 |
| 20260503040904 | 65 | 164 | 0.0 | 1.7 | 0.00 | 0.00 | 0.00 | 71 | 1013.6 |
| 20260503035804 | 67 | 220 | 0.0 | 1.7 | 0.00 | 0.00 | 0.00 | 68 | 1013.6 |
| 20260503035301 | 67 | 220 | 0.0 | 1.7 | 0.00 | 0.00 | 0.00 | 66 | 1013.4 |
| 20260503034804 | 67 | 220 | 0.9 | 6.1 | 0.00 | 0.00 | 0.00 | 65 | 1013.5 |
| 20260503034304 | 68 | 220 | 1.7 | 6.1 | 0.00 | 0.00 | 0.00 | 65 | 1013.0 |
| 20260503033807 | 68 | 230 | 1.7 | 7.0 | 0.00 | 0.00 | 0.00 | 64 | 1013.0 |
| 20260503033305 | 69 | 192 | 4.3 | 7.8 | 0.00 | 0.00 | 0.00 | 64 | 1013.0 |
| 20260503032802 | 69 | 217 | 4.3 | 8.7 | 0.00 | 0.00 | 0.00 | 64 | 1012.8 |
| 20260503032304 | 69 | 233 | 4.3 | 11.3 | 0.00 | 0.00 | 0.00 | 63 | 1012.7 |
| 20260503031804 | 70 | 237 | 3.5 | 11.3 | 0.00 | 0.00 | 0.00 | 63 | 1012.8 |
| 20260503031627 | 71 | 220 | 4.3 | 11.3 | 0.00 | 0.00 | 0.00 | 62 | 1012.4 |
| 20260503031130 | 71 | 218 | 1.7 | 11.3 | 0.00 | 0.00 | 0.00 | 61 | 1012.4 |
| 20260503030303 | 71 | 224 | 3.5 | 8.7 | 0.00 | 0.00 | 0.00 | 61 | 1012.5 |
| 20260503025805 | 71 | 214 | 4.3 | 8.7 | 0.00 | 0.00 | 0.00 | 61 | 1012.3 |
| 20260503025301 | 72 | 198 | 1.7 | 2.6 | 0.00 | 0.00 | 0.00 | 63 | 1012.3 |
| 20260503024827 | 73 | 198 | 0.9 | 2.6 | 0.00 | 0.00 | 0.00 | 62 | 1012.2 |
| 20260503024301 | 73 | 211 | 1.7 | 2.6 | 0.00 | 0.00 | 0.00 | 59 | 1012.2 |
| 20260503023804 | 73 | 212 | 1.7 | 2.6 | 0.00 | 0.00 | 0.00 | 58 | 1012.1 |
| 20260503023301 | 74 | 212 | 1.7 | 2.6 | 0.00 | 0.00 | 0.00 | 58 | 1012.0 |
| 20260503022802 | 74 | 212 | 0.9 | 2.6 | 0.00 | 0.00 | 0.00 | 57 | 1012.0 |
| 20260503022310 | 75 | 212 | 0.9 | 2.6 | 0.00 | 0.00 | 0.00 | 56 | 1011.9 |
| 20260503021806 | 75 | 212 | 0.9 | 2.6 | 0.00 | 0.00 | 0.00 | 56 | 1012.0 |
| 20260503021315 | 75 | 212 | 0.9 | 2.6 | 0.00 | 0.00 | 0.00 | 56 | 1012.0 |
| 20260503020802 | 75 | 213 | 0.9 | 2.6 | 0.00 | 0.00 | 0.00 | 56 | 1011.9 |
| 20260503020304 | 76 | 213 | 0.0 | 2.6 | 0.00 | 0.00 | 0.00 | 55 | 1011.7 |
| 20260503015802 | 75 | 213 | 0.9 | 1.7 | 0.00 | 0.00 | 0.00 | 57 | 1011.7 |
| 20260503015301 | 75 | 213 | 1.7 | 3.5 | 0.00 | 0.00 | 0.00 | 57 | 1011.8 |
| 20260503014802 | 74 | 186 | 0.9 | 3.5 | 0.00 | 0.00 | 0.00 | 57 | 1011.8 |
| 20260503014300 | 75 | 229 | 1.7 | 5.2 | 0.00 | 0.00 | 0.00 | 57 | 1011.7 |
| 20260503013803 | 75 | 219 | 0.9 | 5.2 | 0.00 | 0.00 | 0.00 | 57 | 1011.7 |
| 20260503013310 | 75 | 189 | 1.7 | 6.1 | 0.00 | 0.00 | 0.00 | 58 | 1011.9 |
| 20260503012801 | 75 | 229 | 0.9 | 6.1 | 0.00 | 0.00 | 0.00 | 57 | 1011.9 |
| 20260503012300 | 75 | 203 | 1.7 | 5.2 | 0.00 | 0.00 | 0.00 | 57 | 1011.6 |
| 20260503011800 | 75 | 208 | 2.6 | 5.2 | 0.00 | 0.00 | 0.00 | 57 | 1011.7 |
| 20260503011625 | 75 | 225 | 2.6 | 5.2 | 0.00 | 0.00 | 0.00 | 57 | 1011.9 |
| 20260503011108 | 75 | 210 | 1.7 | 6.1 | 0.00 | 0.00 | 0.00 | 57 | 1012.0 |
| 20260503010309 | 75 | 212 | 1.7 | 6.1 | 0.00 | 0.00 | 0.00 | 56 | 1011.7 |
| 20260503005802 | 75 | 208 | 3.5 | 6.1 | 0.00 | 0.00 | 0.00 | 57 | 1011.8 |
| 20260503005301 | 76 | 213 | 2.6 | 7.8 | 0.00 | 0.00 | 0.00 | 56 | 1011.8 |
| 20260503004800 | 76 | 212 | 4.3 | 7.8 | 0.00 | 0.00 | 0.00 | 56 | 1011.7 |
| 20260503004302 | 76 | 231 | 4.3 | 7.0 | 0.00 | 0.00 | 0.00 | 57 | 1011.6 |
| 20260503003800 | 76 | 215 | 2.6 | 6.1 | 0.00 | 0.00 | 0.00 | 57 | 1011.7 |
| 20260503003301 | 76 | 236 | 2.6 | 7.0 | 0.00 | 0.00 | 0.00 | 57 | 1011.8 |
| 20260503002801 | 76 | 243 | 0.9 | 7.0 | 0.00 | 0.00 | 0.00 | 57 | 1011.9 |
| 20260503002300 | 76 | 241 | 4.3 | 6.1 | 0.00 | 0.00 | 0.00 | 54 | 1011.9 |
| 20260503001803 | 77 | 213 | 3.5 | 3.5 | 0.00 | 0.00 | 0.00 | 53 | 1011.8 |
| 20260503001655 | 77 | 235 | 0.0 | 3.5 | 0.00 | 0.00 | 0.00 | 53 | 1011.7 |
| 20260503000805 | 77 | 299 | 1.7 | 3.5 | 0.00 | 0.00 | 0.00 | 53 | 1011.7 |
| 20260503000304 | 77 | 326 | 1.7 | 5.2 | 0.00 | 0.00 | 0.00 | 54 | 1011.7 |
| 20260503000141 | 77 | 216 | 0.0 | 5.2 | 0.00 | 0.00 | 0.00 | 53 | 1011.7 |
| 20260502235304 | 77 | 312 | 3.5 | 6.1 | 0.00 | 0.00 | 0.00 | 53 | 1011.8 |
| 20260502234801 | 76 | 303 | 3.5 | 6.1 | 0.00 | 0.00 | 0.00 | 55 | 1012.0 |
| 20260502234308 | 77 | 303 | 1.7 | 6.1 | 0.00 | 0.00 | 0.00 | 52 | 1012.0 |
| 20260502233801 | 77 | 299 | 2.6 | 6.1 | 0.00 | 0.00 | 0.00 | 54 | 1012.1 |
| 20260502233302 | 77 | 327 | 0.0 | 5.2 | 0.00 | 0.00 | 0.00 | 53 | 1012.1 |
| 20260502232800 | 77 | 12 | 2.6 | 6.1 | 0.00 | 0.00 | 0.00 | 55 | 1012.0 |
| 20260502232300 | 77 | 354 | 4.3 | 6.1 | 0.00 | 0.00 | 0.00 | 55 | 1012.4 |
| 20260502231801 | 77 | 8 | 1.7 | 7.0 | 0.00 | 0.00 | 0.00 | 58 | 1012.4 |
| 20260502231306 | 76 | 328 | 3.5 | 7.0 | 0.00 | 0.00 | 0.00 | 53 | 1012.4 |
| 20260502230915 | 76 | 285 | 0.0 | 7.0 | 0.00 | 0.00 | 0.00 | 59 | 1012.6 |
| 20260502230834 | 76 | 351 | 2.6 | 6.1 | 0.00 | 0.00 | 0.00 | 55 | 1012.6 |
| 20260502225300 | 75 | 322 | 2.6 | 5.2 | 0.00 | 0.00 | 0.00 | 59 | 1012.6 |
| 20260502224804 | 74 | 278 | 1.7 | 6.1 | 0.00 | 0.00 | 0.00 | 57 | 1012.6 |
| 20260502224654 | 74 | 225 | 2.6 | 8.7 | 0.00 | 0.00 | 0.00 | 58 | 1012.7 |